Weather Roundup
Issued by NWS Chicago, IL

Home | Current Version | Previous Version | Text Only | Print | Product List | Glossary Off
Versions: 1 2 3 4 5 6 7 8 9 10 11 12 13 14 15 16 17 18 19 20 21 22 23 24 25 26 27 28 29 30 31 32 33 34 35 36 37 38 39 40 41 42 43 44 45 46 47 48 49 50

000
NZUS59 KLOT 282202
HRRLOT

CHICAGO AREA WEATHER ROUNDUP
NATIONAL WEATHER SERVICE CHICAGO/ROMEOVILLE IL
500 PM CDT SAT MAR 28 2015

NOTE: "FAIR" INDICATES FEW OR NO CLOUDS BELOW 12,000 FEET WITH NO
SIGNIFICANT WEATHER AND/OR OBSTRUCTIONS TO VISIBILITY.

* THESE STATIONS ARE NOT UNDER NWS QUALITY CONTROL. THEY ALSO MAY NOT
  REPORT WEATHER SUCH AS PRECIPITATION OR FOG.

ILZ005-006-012>014-019>023-282300-
NORTHEAST ILLINOIS

CITY           SKY/WX    TMP DP  RH WIND       PRES   REMARKS
OHARE          SUNNY     35   7  31 E7        30.29F WCI  29
MIDWAY         SUNNY     36   4  26 VRB6      30.31F
AURORA         SUNNY     40   6  24 VRB3      30.27F
WAUKEGAN       SUNNY     30  12  47 SE10      30.29F WCI  21
DUPAGE AIRPORT SUNNY     39   5  24 VRB5      30.27F
WHEELING       SUNNY     33   7  33 VRB5      30.31F WCI  29
NORTHERLY IS     N/A     29  11  47 E6          N/A  WCI  23
$$

WIZ051-052-058>065-066-070>072-282300-
SOUTHEAST WISCONSIN

CITY           SKY/WX    TMP DP  RH WIND       PRES   REMARKS
MILWAUKEE      MOSUNNY   33  11  39 SE15      30.27F WCI  23
KENOSHA*       SUNNY     33  13  43 SE13      30.28F WCI  24
RACINE*        SUNNY     31  12  45 S13       30.30F WCI  21
WAUKESHA       SUNNY     37  10  32 SW9       30.25F
$$

INZ001>003-010>013-019-020-282300-
NORTHWEST INDIANA

CITY           SKY/WX    TMP DP  RH WIND       PRES   REMARKS
GARY*          SUNNY     32   3  29 NE12      30.33S WCI  23
MICHIGAN CITY* NOT AVBL
RENSSELAER*    NOT AVBL
$$

LMZ740>746-282300-
SOUTHERN LAKE MICHIGAN

STATION/POSITION TIME  SKY/WX   TEMP WIND        PRES    VSBY
                                AIR  DIR/SP/G
                 (UTC)          (F)  (DEG/KT/KT) (MB)    (MI)
HARRISON CRIB    2100            26   50/  4/  5   N/A
BURNHAM HARBOR   2200            29   50/  6/  8   N/A
CALUMET HARBOR   2100            28   30/  7/  9 1025.6F
BURNS HARBOR     2100            26  350/  6/  8 1027.4S
MICHIGAN CITY    2100            28  330/  9/ 11   N/A
$$

ABBREVIATIONS USED IN REMARKS
   TC - TEMPERATURE IN CELSIUS
  WCI - WIND CHILL INDEX
   HX - HEAT INDEX
  VSB - VISIBILITY
$$



USA.gov is the U.S. government's official web portal to all federal, state and local government web resources and services.